QPF
0.01 0.01 0.01 0.01 0.02 0.02 0.04 0.04 0.04 0.04 0.04 0.04 0.04 0.04 0.03 0.02 0.02 0.02 0.02 0.03 0.03 0.04 0.03 0.02 0.02 0.03 0.04 0.05 0.07 0.08 0.09 0.07 0.06 0.04 0.02 0.01 0.01 0.01 0.01 0.01 0.02 0.02 0.02
0.01 0.01 0.01 0.02 0.03 0.04 0.04 0.05 0.06 0.07 0.07 0.05 0.05 0.04 0.03 0.03 0.03 0.02 0.02 0.02 0.03 0.04 0.04 0.04 0.04 0.04 0.05 0.06 0.06 0.07 0.09 0.09 0.07 0.05 0.03 0.02 0.01 0.01 0.01 0.01 0.01 0.02 0.02
0.01 0.01 0.00 0.01 0.03 0.04 0.04 0.05 0.06 0.07 0.08 0.07 0.06 0.04 0.03 0.02 0.03 0.02 0.02 0.02 0.03 0.05 0.05 0.05 0.06 0.07 0.06 0.05 0.05 0.06 0.08 0.08 0.06 0.04 0.03 0.02 0.02 0.01 0.00 0.01 0.01 0.01 0.01
0.02 0.01 0.00 0.00 0.01 0.02 0.03 0.05 0.06 0.06 0.08 0.08 0.05 0.04 0.02 0.02 0.01 0.02 0.03 0.03 0.04 0.05 0.05 0.06 0.07 0.07 0.07 0.05 0.05 0.05 0.06 0.07 0.05 0.03 0.02 0.02 0.02 0.01 0.01 0.00 0.00 0.01 0.01
0.02 0.01 0.01 0.01 0.01 0.02 0.03 0.05 0.07 0.08 0.08 0.07 0.05 0.04 0.02 0.02 0.01 0.02 0.02 0.02 0.02 0.03 0.03 0.05 0.05 0.04 0.05 0.05 0.04 0.04 0.05 0.04 0.03 0.02 0.02 0.02 0.01 0.01 0.01 0.00 0.01 0.01 0.01
0.01 0.01 0.01 0.01 0.02 0.02 0.03 0.06 0.06 0.05 0.05 0.06 0.05 0.04 0.03 0.02 0.02 0.02 0.02 0.02 0.02 0.02 0.02 0.02 0.02 0.02 0.03 0.04 0.04 0.03 0.02 0.02 0.02 0.02 0.01 0.01 0.00 0.01 0.00 0.00 0.00 0.01 0.01
0.01 0.02 0.02 0.02 0.02 0.02 0.03 0.03 0.03 0.04 0.05 0.04 0.03 0.03 0.03 0.01 0.01 0.02 0.02 0.03 0.03 0.02 0.02 0.02 0.01 0.01 0.01 0.02 0.03 0.03 0.02 0.02 0.03 0.02 0.01 0.00 0.00 0.00 0.00 0.00 0.00 0.00 0.02
0.01 0.02 0.02 0.03 0.04 0.04 0.05 0.04 0.03 0.03 0.03 0.03 0.02 0.03 0.03 0.02 0.02 0.03 0.03 0.03 0.02 0.01 0.02 0.02 0.01 0.01 0.01 0.02 0.03 0.03 0.02 0.02 0.02 0.02 0.01 0.01 0.00 0.00 0.00 0.00 0.00 0.00 0.02
0.01 0.02 0.03 0.03 0.03 0.04 0.05 0.06 0.05 0.03 0.02 0.03 0.05 0.04 0.03 0.03 0.04 0.05 0.04 0.02 0.02 0.03 0.03 0.03 0.02 0.01 0.01 0.01 0.01 0.02 0.03 0.03 0.02 0.02 0.01 0.01 0.01 0.00 0.00 0.00 0.00 0.00 0.01
0.01 0.01 0.02 0.03 0.04 0.05 0.05 0.06 0.07 0.05 0.04 0.05 0.05 0.05 0.04 0.04 0.05 0.06 0.04 0.03 0.04 0.04 0.03 0.02 0.01 0.01 0.01 0.01 0.01 0.01 0.03 0.03 0.02 0.02 0.02 0.02 0.01 0.00 0.00 0.00 0.00 0.00 0.00
0.00 0.01 0.02 0.03 0.04 0.05 0.05 0.05 0.06 0.07 0.06 0.05 0.05 0.05 0.05 0.05 0.06 0.05 0.05 0.04 0.04 0.03 0.02 0.01 0.01 0.01 0.01 0.00 0.01 0.01 0.01 0.02 0.03 0.02 0.02 0.01 0.01 0.01 0.01 0.01 0.01 0.00 0.01
0.01 0.02 0.04 0.04 0.03 0.04 0.03 0.04 0.04 0.05 0.07 0.08 0.08 0.08 0.08 0.06 0.06 0.06 0.05 0.04 0.04 0.03 0.01 0.01 0.01 0.01 0.01 0.00 0.01 0.01 0.01 0.02 0.03 0.03 0.02 0.02 0.01 0.01 0.01 0.01 0.01 0.02 0.02
0.02 0.04 0.06 0.05 0.04 0.03 0.03 0.03 0.04 0.04 0.06 0.07 0.07 0.08 0.09 0.10 0.07 0.05 0.04 0.03 0.02 0.02 0.01 0.00 0.01 0.01 0.01 0.01 0.01 0.01 0.01 0.01 0.02 0.03 0.03 0.02 0.02 0.01 0.01 0.01 0.02 0.03 0.03
0.01 0.03 0.06 0.07 0.07 0.06 0.05 0.04 0.04 0.05 0.04 0.05 0.07 0.08 0.06 0.06 0.06 0.04 0.03 0.01 0.01 0.02 0.01 0.00 0.00 0.01 0.01 0.02 0.02 0.02 0.01 0.01 0.02 0.03 0.04 0.03 0.02 0.02 0.02 0.01 0.02 0.04 0.03
0.02 0.02 0.04 0.06 0.08 0.09 0.10 0.10 0.08 0.05 0.04 0.04 0.06 0.08 0.06 0.05 0.04 0.02 0.02 0.02 0.01 0.01 0.01 0.00 0.00 0.01 0.01 0.01 0.03 0.04 0.03 0.02 0.02 0.02 0.03 0.04 0.03 0.03 0.03 0.02 0.03 0.04 0.03
0.03 0.02 0.03 0.02 0.03 0.05 0.08 0.12 0.13 0.10 0.06 0.04 0.04 0.05 0.05 0.05 0.04 0.02 0.01 0.01 0.01 0.01 0.01 0.00 0.00 0.01 0.01 0.01 0.02 0.03 0.05 0.05 0.04 0.04 0.03 0.04 0.04 0.03 0.03 0.03 0.03 0.03 0.03
0.05 0.04 0.03 0.02 0.02 0.02 0.03 0.06 0.10 0.08 0.07 0.05 0.03 0.03 0.03 0.03 0.03 0.02 0.01 0.01 0.01 0.01 0.01 0.01 0.01 0.01 0.01 0.02 0.02 0.02 0.03 0.05 0.06 0.06 0.05 0.04 0.04 0.04 0.03 0.03 0.03 0.03 0.03
0.04 0.05 0.04 0.03 0.02 0.01 0.01 0.03 0.06 0.06 0.07 0.07 0.05 0.03 0.02 0.02 0.02 0.01 0.01 0.01 0.01 0.01 0.01 0.01 0.02 0.02 0.02 0.02 0.02 0.02 0.03 0.03 0.03 0.04 0.05 0.06 0.05 0.04 0.04 0.03 0.03 0.03 0.03
0.02 0.02 0.03 0.04 0.02 0.01 0.01 0.02 0.03 0.04 0.05 0.06 0.05 0.04 0.04 0.03 0.01 0.01 0.01 0.01 0.01 0.01 0.01 0.01 0.02 0.02 0.03 0.02 0.02 0.03 0.03 0.03 0.03 0.03 0.03 0.03 0.03 0.04 0.04 0.03 0.03 0.03 0.02
0.04 0.03 0.02 0.02 0.02 0.02 0.02 0.02 0.03 0.02 0.03 0.03 0.04 0.05 0.05 0.04 0.03 0.02 0.02 0.02 0.02 0.02 0.02 0.02 0.02 0.01 0.02 0.03 0.02 0.03 0.03 0.03 0.03 0.03 0.03 0.03 0.03 0.03 0.03 0.02 0.02 0.02 0.02
0.04 0.04 0.03 0.02 0.02 0.03 0.02 0.03 0.03 0.03 0.03 0.04 0.03 0.04 0.04 0.04 0.04 0.04 0.03 0.03 0.03 0.02 0.02 0.01 0.01 0.01 0.02 0.03 0.03 0.03 0.03 0.04 0.03 0.02 0.03 0.03 0.03 0.03 0.02 0.02 0.02 0.02 0.02
0.03 0.04 0.03 0.03 0.02 0.04 0.05 0.04 0.05 0.04 0.04 0.04 0.03 0.03 0.03 0.04 0.03 0.03 0.03 0.03 0.03 0.03 0.02 0.02 0.02 0.02 0.02 0.03 0.03 0.03 0.03 0.03 0.03 0.02 0.02 0.03 0.04 0.03 0.02 0.02 0.03 0.02 0.02
0.04 0.05 0.05 0.04 0.03 0.03 0.06 0.07 0.05 0.04 0.03 0.04 0.04 0.04 0.04 0.04 0.03 0.03 0.04 0.03 0.03 0.03 0.03 0.03 0.03 0.02 0.02 0.02 0.02 0.02 0.03 0.03 0.02 0.02 0.02 0.02 0.04 0.03 0.02 0.01 0.01 0.01 0.02
0.04 0.04 0.06 0.08 0.07 0.05 0.05 0.05 0.06 0.05 0.06 0.05 0.05 0.05 0.05 0.05 0.05 0.05 0.05 0.04 0.04 0.03 0.03 0.02 0.03 0.03 0.02 0.02 0.02 0.03 0.03 0.03 0.03 0.02 0.02 0.02 0.02 0.02 0.01 0.01 0.01 0.01 0.03
0.03 0.03 0.04 0.07 0.08 0.07 0.05 0.05 0.05 0.06 0.07 0.09 0.09 0.08 0.07 0.07 0.06 0.06 0.05 0.05 0.04 0.04 0.03 0.02 0.02 0.02 0.02 0.02 0.02 0.03 0.03 0.03 0.03 0.03 0.02 0.02 0.01 0.01 0.01 0.01 0.00 0.01 0.01
0.03 0.03 0.03 0.05 0.07 0.06 0.07 0.07 0.06 0.07 0.07 0.08 0.08 0.07 0.07 0.06 0.06 0.05 0.05 0.04 0.03 0.03 0.03 0.03 0.03 0.03 0.02 0.02 0.02 0.02 0.03 0.03 0.03 0.02 0.02 0.02 0.01 0.01 0.00 0.00 0.00 0.01 0.01
MSLP
1008.59 1009.05 1009.43 1009.68 1009.82 1009.88 1009.90 1009.96 1010.09 1010.33 1010.67 1011.09 1011.54 1011.97 1012.34 1012.61 1012.79 1012.88 1012.93 1012.96 1013.02 1013.13 1013.30 1013.53 1013.81 1014.11 1014.41 1014.68 1014.91 1015.08 1015.20 1015.27 1015.28 1015.25 1015.17 1015.06 1014.92 1014.75 1014.57 1014.39 1014.23 1014.11 1014.04
1008.04 1008.59 1009.06 1009.39 1009.60 1009.72 1009.79 1009.88 1010.05 1010.34 1010.72 1011.19 1011.69 1012.17 1012.57 1012.87 1013.05 1013.14 1013.16 1013.17 1013.19 1013.27 1013.41 1013.62 1013.88 1014.15 1014.42 1014.66 1014.86 1015.01 1015.11 1015.17 1015.19 1015.19 1015.15 1015.09 1014.99 1014.87 1014.73 1014.57 1014.41 1014.27 1014.16
1007.20 1007.84 1008.41 1008.87 1009.19 1009.41 1009.57 1009.75 1009.98 1010.32 1010.76 1011.27 1011.81 1012.32 1012.76 1013.07 1013.27 1013.36 1013.38 1013.36 1013.37 1013.41 1013.52 1013.69 1013.90 1014.13 1014.35 1014.54 1014.70 1014.81 1014.89 1014.95 1014.99 1015.02 1015.04 1015.04 1015.01 1014.95 1014.85 1014.72 1014.57 1014.41 1014.27
1006.14 1006.85 1007.54 1008.13 1008.60 1008.95 1009.24 1009.52 1009.84 1010.25 1010.73 1011.28 1011.84 1012.37 1012.82 1013.16 1013.37 1013.47 1013.49 1013.48 1013.48 1013.51 1013.59 1013.71 1013.87 1014.04 1014.20 1014.33 1014.43 1014.51 1014.57 1014.63 1014.69 1014.76 1014.83 1014.90 1014.94 1014.94 1014.90 1014.80 1014.67 1014.50 1014.32
1004.96 1005.73 1006.51 1007.23 1007.85 1008.36 1008.79 1009.20 1009.62 1010.09 1010.62 1011.19 1011.76 1012.30 1012.75 1013.10 1013.32 1013.44 1013.48 1013.49 1013.49 1013.52 1013.58 1013.67 1013.78 1013.88 1013.98 1014.05 1014.10 1014.14 1014.17 1014.23 1014.31 1014.42 1014.54 1014.67 1014.77 1014.83 1014.83 1014.76 1014.64 1014.47 1014.27
1003.79 1004.57 1005.41 1006.24 1007.00 1007.66 1008.24 1008.77 1009.29 1009.84 1010.40 1010.99 1011.57 1012.09 1012.54 1012.89 1013.13 1013.27 1013.34 1013.38 1013.40 1013.43 1013.48 1013.55 1013.62 1013.68 1013.72 1013.73 1013.73 1013.73 1013.74 1013.79 1013.88 1014.01 1014.16 1014.33 1014.48 1014.58 1014.61 1014.57 1014.46 1014.28 1014.07
1002.75 1003.50 1004.36 1005.26 1006.12 1006.90 1007.61 1008.26 1008.88 1009.48 1010.09 1010.69 1011.27 1011.79 1012.23 1012.57 1012.82 1012.99 1013.10 1013.16 1013.22 1013.28 1013.33 1013.39 1013.43 1013.45 1013.44 1013.40 1013.35 1013.31 1013.29 1013.32 1013.40 1013.53 1013.70 1013.88 1014.05 1014.17 1014.22 1014.19 1014.09 1013.92 1013.71
1001.95 1002.61 1003.45 1004.35 1005.26 1006.12 1006.93 1007.68 1008.38 1009.05 1009.70 1010.32 1010.90 1011.42 1011.85 1012.20 1012.47 1012.66 1012.80 1012.91 1013.00 1013.08 1013.15 1013.20 1013.22 1013.21 1013.16 1013.08 1012.98 1012.90 1012.84 1012.84 1012.89 1013.00 1013.15 1013.32 1013.48 1013.60 1013.65 1013.63 1013.54 1013.39 1013.20
1001.44 1001.99 1002.74 1003.60 1004.50 1005.39 1006.25 1007.07 1007.84 1008.57 1009.27 1009.92 1010.52 1011.04 1011.48 1011.84 1012.12 1012.34 1012.51 1012.65 1012.77 1012.87 1012.96 1013.01 1013.02 1012.98 1012.89 1012.77 1012.63 1012.50 1012.40 1012.34 1012.35 1012.41 1012.52 1012.66 1012.79 1012.88 1012.93 1012.92 1012.85 1012.73 1012.57
1001.28 1001.67 1002.29 1003.04 1003.88 1004.75 1005.62 1006.47 1007.30 1008.08 1008.83 1009.52 1010.15 1010.69 1011.16 1011.53 1011.83 1012.08 1012.27 1012.43 1012.57 1012.69 1012.78 1012.83 1012.83 1012.76 1012.65 1012.49 1012.30 1012.12 1011.96 1011.84 1011.79 1011.79 1011.84 1011.92 1012.00 1012.07 1012.11 1012.10 1012.06 1011.98 1011.88
1001.46 1001.68 1002.13 1002.74 1003.46 1004.25 1005.09 1005.94 1006.79 1007.62 1008.42 1009.16 1009.82 1010.40 1010.89 1011.29 1011.61 1011.87 1012.08 1012.26 1012.41 1012.53 1012.62 1012.66 1012.65 1012.57 1012.42 1012.23 1012.00 1011.76 1011.53 1011.35 1011.22 1011.15 1011.12 1011.14 1011.17 1011.21 1011.24 1011.25 1011.24 1011.22 1011.19
1001.95 1001.99 1002.24 1002.67 1003.24 1003.92 1004.68 1005.50 1006.35 1007.21 1008.04 1008.83 1009.54 1010.16 1010.68 1011.10 1011.44 1011.71 1011.93 1012.11 1012.26 1012.39 1012.47 1012.50 1012.48 1012.38 1012.21 1011.99 1011.71 1011.42 1011.14 1010.88 1010.68 1010.53 1010.43 1010.38 1010.37 1010.38 1010.40 1010.43 1010.46 1010.50 1010.56
1002.68 1002.55 1002.61 1002.84 1003.24 1003.77 1004.43 1005.18 1006.00 1006.86 1007.71 1008.53 1009.27 1009.93 1010.48 1010.92 1011.28 1011.55 1011.78 1011.96 1012.11 1012.23 1012.31 1012.34 1012.30 1012.20 1012.02 1011.77 1011.46 1011.13 1010.79 1010.47 1010.20 1009.97 1009.81 1009.70 1009.65 1009.64 1009.66 1009.71 1009.79 1009.90 1010.04
1003.59 1003.30 1003.17 1003.21 1003.42 1003.79 1004.31 1004.97 1005.74 1006.57 1007.42 1008.24 1009.01 1009.68 1010.26 1010.72 1011.08 1011.36 1011.59 1011.77 1011.92 1012.04 1012.12 1012.16 1012.13 1012.02 1011.84 1011.58 1011.25 1010.89 1010.51 1010.14 1009.80 1009.52 1009.30 1009.15 1009.06 1009.03 1009.06 1009.14 1009.26 1009.43 1009.64
1004.58 1004.15 1003.85 1003.71 1003.73 1003.94 1004.32 1004.87 1005.55 1006.33 1007.14 1007.96 1008.72 1009.41 1009.99 1010.46 1010.83 1011.12 1011.35 1011.54 1011.70 1011.82 1011.92 1011.96 1011.95 1011.86 1011.68 1011.43 1011.10 1010.72 1010.31 1009.91 1009.53 1009.20 1008.94 1008.75 1008.64 1008.61 1008.64 1008.75 1008.90 1009.12 1009.39
1005.54 1005.00 1004.56 1004.26 1004.12 1004.16 1004.40 1004.83 1005.41 1006.11 1006.88 1007.66 1008.41 1009.09 1009.67 1010.15 1010.53 1010.84 1011.08 1011.28 1011.45 1011.59 1011.71 1011.78 1011.79 1011.72 1011.57 1011.33 1011.01 1010.63 1010.22 1009.79 1009.39 1009.04 1008.75 1008.54 1008.42 1008.38 1008.43 1008.55 1008.73 1008.98 1009.28
1006.37 1005.75 1005.20 1004.76 1004.48 1004.39 1004.50 1004.80 1005.29 1005.90 1006.61 1007.35 1008.07 1008.74 1009.32 1009.81 1010.21 1010.53 1010.79 1011.01 1011.20 1011.37 1011.51 1011.61 1011.65 1011.61 1011.49 1011.28 1010.99 1010.62 1010.21 1009.79 1009.39 1009.03 1008.73 1008.52 1008.40 1008.36 1008.42 1008.55 1008.74 1009.00 1009.31
1006.99 1006.30 1005.67 1005.14 1004.76 1004.55 1004.55 1004.75 1005.14 1005.68 1006.33 1007.03 1007.73 1008.39 1008.98 1009.49 1009.91 1010.26 1010.54 1010.79 1011.01 1011.20 1011.36 1011.49 1011.56 1011.55 1011.46 1011.29 1011.02 1010.69 1010.30 1009.90 1009.51 1009.17 1008.88 1008.68 1008.57 1008.54 1008.61 1008.74 1008.94 1009.19 1009.49
1007.32 1006.60 1005.92 1005.33 1004.87 1004.58 1004.49 1004.61 1004.93 1005.41 1006.02 1006.69 1007.39 1008.06 1008.68 1009.21 1009.67 1010.05 1010.37 1010.64 1010.88 1011.09 1011.28 1011.42 1011.51 1011.53 1011.47 1011.33 1011.10 1010.81 1010.47 1010.10 1009.75 1009.43 1009.18 1009.00 1008.91 1008.90 1008.98 1009.12 1009.31 1009.55 1009.82
1007.38 1006.63 1005.92 1005.29 1004.78 1004.44 1004.30 1004.37 1004.64 1005.09 1005.68 1006.35 1007.06 1007.76 1008.42 1009.00 1009.50 1009.93 1010.28 1010.58 1010.83 1011.05 1011.24 1011.39 1011.49 1011.53 1011.50 1011.40 1011.21 1010.97 1010.68 1010.37 1010.07 1009.80 1009.59 1009.45 1009.38 1009.40 1009.49 1009.63 1009.82 1010.03 1010.27
1007.18 1006.43 1005.70 1005.04 1004.51 1004.14 1003.96 1004.00 1004.26 1004.70 1005.29 1005.99 1006.74 1007.49 1008.20 1008.85 1009.40 1009.87 1010.26 1010.57 1010.84 1011.06 1011.24 1011.38 1011.48 1011.54 1011.53 1011.46 1011.33 1011.14 1010.92 1010.67 1010.44 1010.23 1010.07 1009.97 1009.94 1009.98 1010.08 1010.23 1010.41 1010.61 1010.82
1006.81 1006.05 1005.31 1004.64 1004.09 1003.70 1003.51 1003.54 1003.80 1004.25 1004.87 1005.60 1006.41 1007.22 1008.00 1008.71 1009.33 1009.84 1010.26 1010.59 1010.85 1011.06 1011.23 1011.36 1011.46 1011.52 1011.54 1011.51 1011.43 1011.30 1011.15 1010.98 1010.81 1010.67 1010.57 1010.52 1010.52 1010.59 1010.70 1010.85 1011.03 1011.21 1011.40
1006.37 1005.60 1004.85 1004.17 1003.60 1003.20 1003.00 1003.03 1003.28 1003.76 1004.40 1005.19 1006.05 1006.93 1007.78 1008.55 1009.22 1009.78 1010.23 1010.57 1010.83 1011.03 1011.18 1011.30 1011.40 1011.46 1011.50 1011.51 1011.49 1011.44 1011.36 1011.26 1011.16 1011.08 1011.03 1011.01 1011.05 1011.13 1011.25 1011.41 1011.58 1011.75 1011.92
1005.96 1005.18 1004.42 1003.72 1003.15 1002.73 1002.51 1002.52 1002.77 1003.25 1003.92 1004.74 1005.64 1006.58 1007.49 1008.32 1009.04 1009.64 1010.11 1010.47 1010.73 1010.92 1011.06 1011.17 1011.27 1011.35 1011.42 1011.48 1011.51 1011.52 1011.50 1011.48 1011.44 1011.40 1011.39 1011.40 1011.45 1011.53 1011.65 1011.80 1011.96 1012.13 1012.29
1005.68 1004.89 1004.12 1003.41 1002.80 1002.36 1002.11 1002.09 1002.32 1002.78 1003.45 1004.28 1005.20 1006.17 1007.12 1007.99 1008.75 1009.38 1009.87 1010.24 1010.52 1010.71 1010.85 1010.97 1011.08 1011.18 1011.28 1011.38 1011.47 1011.53 1011.58 1011.60 1011.60 1011.60 1011.60 1011.62 1011.66 1011.73 1011.84 1011.96 1012.12 1012.28 1012.44
1005.58 1004.79 1004.02 1003.29 1002.66 1002.17 1001.88 1001.81 1001.99 1002.41 1003.04 1003.84 1004.75 1005.72 1006.67 1007.56 1008.34 1008.99 1009.51 1009.90 1010.19 1010.40 1010.56 1010.69 1010.82 1010.96 1011.09 1011.23 1011.36 1011.47 1011.55 1011.60 1011.63 1011.63 1011.63 1011.63 1011.65 1011.69 1011.76 1011.86 1011.99 1012.14 1012.30
Thickness
5750 5748 5747 5745 5742 5738 5736 5734 5732 5731 5729 5726 5723 5721 5721 5721 5721 5721 5720 5720 5719 5718 5717 5715 5713 5712 5710 5708 5706 5704 5702 5699 5699 5697 5695 5695 5696 5696 5696 5697 5697 5697 5697
5744 5744 5742 5740 5738 5736 5734 5732 5730 5729 5727 5726 5724 5722 5720 5719 5719 5718 5718 5718 5717 5716 5715 5713 5711 5709 5707 5705 5704 5702 5698 5696 5696 5693 5689 5686 5687 5690 5692 5692 5692 5692 5692
5743 5742 5740 5737 5736 5734 5733 5732 5729 5727 5725 5724 5722 5720 5717 5715 5714 5713 5714 5715 5714 5713 5712 5711 5709 5707 5705 5703 5701 5700 5697 5693 5691 5691 5688 5683 5680 5682 5685 5687 5688 5688 5688
5743 5741 5739 5736 5735 5735 5734 5731 5728 5726 5723 5722 5719 5717 5714 5711 5711 5711 5711 5712 5711 5710 5709 5708 5707 5705 5703 5701 5699 5698 5695 5692 5689 5687 5686 5685 5684 5680 5678 5681 5682 5683 5684
5743 5741 5740 5739 5737 5735 5733 5730 5727 5724 5722 5720 5718 5716 5714 5711 5710 5709 5708 5708 5708 5707 5706 5705 5704 5703 5701 5699 5698 5695 5693 5691 5688 5685 5683 5681 5680 5679 5676 5674 5676 5678 5680
5743 5741 5740 5738 5734 5732 5730 5727 5723 5721 5720 5718 5716 5714 5712 5710 5707 5705 5704 5704 5703 5703 5703 5702 5701 5699 5698 5697 5695 5694 5692 5689 5687 5685 5683 5681 5679 5676 5674 5672 5671 5672 5675
5740 5738 5736 5734 5731 5729 5728 5725 5722 5719 5718 5717 5715 5714 5712 5710 5707 5705 5703 5701 5700 5699 5700 5700 5698 5696 5696 5695 5693 5691 5689 5687 5685 5683 5681 5680 5679 5677 5675 5672 5669 5668 5670
5737 5736 5735 5732 5729 5727 5725 5723 5720 5718 5716 5715 5714 5712 5710 5708 5706 5704 5702 5700 5699 5698 5698 5697 5695 5694 5693 5692 5690 5688 5687 5685 5683 5681 5679 5677 5677 5676 5674 5671 5668 5665 5665
5733 5733 5731 5729 5727 5725 5723 5721 5718 5716 5715 5713 5712 5709 5708 5706 5704 5703 5701 5699 5698 5697 5696 5694 5693 5691 5690 5689 5687 5685 5684 5682 5680 5678 5677 5675 5674 5673 5672 5671 5669 5666 5663
5728 5728 5727 5726 5724 5723 5721 5719 5716 5714 5712 5711 5709 5708 5706 5705 5704 5702 5699 5698 5696 5695 5694 5692 5690 5689 5688 5686 5685 5683 5681 5679 5677 5676 5674 5672 5672 5671 5670 5669 5667 5666 5664
5725 5725 5724 5723 5721 5719 5717 5714 5712 5710 5708 5707 5706 5705 5703 5702 5701 5699 5698 5696 5694 5693 5691 5690 5687 5686 5685 5684 5682 5680 5678 5676 5674 5673 5672 5670 5669 5668 5667 5666 5665 5663 5662
5722 5721 5720 5718 5716 5714 5712 5711 5709 5707 5706 5704 5702 5701 5700 5699 5698 5696 5695 5694 5692 5691 5690 5688 5686 5684 5683 5682 5680 5678 5676 5674 5672 5671 5669 5668 5667 5665 5665 5664 5662 5661 5660
5717 5715 5713 5712 5712 5710 5709 5707 5705 5704 5703 5701 5699 5698 5696 5696 5695 5694 5693 5692 5690 5689 5688 5686 5684 5682 5681 5679 5678 5676 5674 5673 5671 5670 5668 5666 5665 5664 5663 5661 5660 5659 5658
5711 5709 5708 5707 5707 5707 5706 5704 5702 5701 5699 5698 5696 5694 5693 5693 5692 5691 5690 5689 5689 5687 5686 5684 5683 5681 5679 5677 5676 5674 5673 5671 5669 5668 5666 5665 5664 5663 5662 5660 5658 5656 5654
5706 5705 5704 5703 5703 5703 5702 5701 5700 5698 5697 5694 5693 5692 5691 5690 5689 5688 5687 5687 5686 5686 5684 5682 5680 5678 5677 5675 5673 5672 5671 5669 5667 5666 5665 5664 5663 5662 5661 5660 5657 5655 5652
5702 5702 5701 5700 5699 5700 5699 5699 5697 5695 5693 5692 5691 5690 5688 5687 5686 5685 5685 5684 5683 5682 5681 5679 5677 5675 5675 5673 5671 5669 5668 5667 5665 5664 5663 5662 5660 5660 5659 5657 5656 5654 5652
5697 5697 5697 5697 5696 5697 5697 5696 5695 5693 5691 5689 5688 5687 5685 5685 5684 5684 5682 5681 5680 5679 5677 5676 5674 5673 5672 5670 5668 5667 5665 5664 5663 5662 5660 5660 5660 5658 5656 5654 5653 5651 5650
5693 5694 5694 5693 5693 5693 5693 5693 5692 5691 5689 5687 5685 5684 5684 5683 5682 5680 5679 5678 5677 5676 5675 5674 5672 5670 5669 5668 5666 5664 5662 5661 5661 5659 5658 5657 5656 5655 5653 5651 5650 5649 5648
5690 5691 5690 5690 5690 5690 5689 5688 5687 5687 5686 5685 5684 5684 5683 5681 5680 5678 5677 5676 5674 5673 5672 5671 5669 5668 5667 5666 5663 5661 5660 5659 5658 5657 5656 5654 5653 5651 5649 5648 5646 5646 5646
5686 5687 5686 5686 5686 5686 5686 5684 5683 5683 5683 5684 5683 5682 5681 5679 5678 5676 5675 5673 5672 5670 5669 5668 5667 5666 5665 5663 5661 5658 5657 5656 5655 5654 5653 5651 5650 5648 5646 5645 5644 5643 5643
5681 5682 5682 5681 5682 5682 5682 5680 5681 5681 5683 5682 5681 5679 5677 5676 5675 5672 5671 5669 5668 5666 5665 5664 5663 5662 5662 5660 5658 5656 5655 5653 5652 5651 5649 5649 5647 5645 5643 5642 5641 5641 5640
5674 5676 5675 5675 5677 5677 5676 5676 5677 5679 5679 5678 5677 5675 5674 5672 5671 5668 5666 5665 5664 5662 5661 5659 5658 5658 5658 5657 5655 5653 5651 5650 5648 5647 5647 5646 5644 5642 5640 5639 5639 5637 5636
5665 5667 5668 5668 5669 5670 5671 5670 5671 5672 5672 5671 5670 5669 5668 5667 5666 5665 5662 5661 5659 5658 5657 5656 5655 5655 5654 5653 5652 5649 5647 5645 5643 5643 5642 5641 5640 5638 5637 5635 5635 5633 5632
5657 5658 5659 5660 5661 5662 5664 5665 5665 5665 5665 5664 5663 5662 5661 5660 5659 5659 5658 5657 5655 5654 5653 5652 5652 5651 5650 5649 5648 5646 5643 5640 5639 5637 5637 5636 5634 5633 5632 5631 5631 5630 5630
5647 5649 5650 5652 5653 5655 5656 5657 5657 5657 5656 5656 5655 5655 5655 5654 5653 5653 5653 5653 5653 5652 5650 5649 5648 5647 5647 5648 5646 5643 5640 5638 5636 5634 5632 5631 5630 5630 5629 5629 5628 5627 5627
5640 5641 5642 5643 5646 5647 5648 5648 5649 5650 5649 5647 5647 5647 5647 5647 5647 5647 5647 5647 5647 5647 5647 5646 5644 5644 5644 5644 5642 5640 5638 5635 5633 5630 5629 5628 5628 5627 5627 5627 5626 5625 5625